OK1LPD-6 Weather Reports


time (UTC)temp
F
wind
direction
speed
knots
gust
knots
rain 1hr
in
rain 24hr
in
rain mn
in
humidity
%
barometer
mb
20260902065613 68 0 0.0 0.0 0.00 0.00 0.00 62 1022.1
20260902064624 68 0 0.0 0.0 0.00 0.00 0.00 62 1022.1
20260902063613 67 0 0.0 0.0 0.00 0.00 0.00 63 1022.1
20260902062613 66 0 0.0 0.0 0.00 0.00 0.00 65 1022.0
20260902061625 65 0 0.0 0.0 0.00 0.00 0.00 66 1022.1
20260902060613 64 0 0.0 0.0 0.00 0.00 0.00 69 1022.2
20260902055613 63 0 0.0 0.0 0.00 0.00 0.00 72 1022.2
20260902054624 62 0 0.0 0.0 0.00 0.00 0.00 75 1022.1
20260902053614 60 0 0.0 0.0 0.00 0.00 0.00 80 1022.1
20260902052613 60 0 0.0 0.0 0.00 0.00 0.00 88 1022.0
20260902051630 57 0 0.0 0.0 0.00 0.00 0.00 93 1021.9
20260902050614 55 0 0.0 0.0 0.00 0.00 0.00 94 1021.8
20260902045614 53 0 0.0 0.0 0.00 0.00 0.00 96 1021.8
20260902044631 53 0 0.0 0.0 0.00 0.00 0.00 96 1021.7
20260902043614 53 0 0.0 0.0 0.00 0.00 0.00 95 1021.6
20260902042615 53 0 0.0 0.0 0.00 0.00 0.00 95 1021.4
20260902041635 53 0 0.0 0.0 0.00 0.00 0.00 95 1021.3
20260902040615 53 0 0.0 0.0 0.00 0.00 0.00 95 1021.4
20260902035614 53 0 0.0 0.0 0.00 0.00 0.00 95 1021.3
20260902034632 53 0 0.0 0.0 0.00 0.00 0.00 94 1021.2
20260902033615 53 0 0.0 0.0 0.00 0.00 0.00 94 1021.4
20260902032615 53 0 0.0 0.0 0.00 0.00 0.00 94 1021.5
20260902031635 53 0 0.0 0.0 0.00 0.00 0.00 94 1021.6
20260902030615 54 0 0.0 0.0 0.00 0.00 0.00 94 1021.5
20260902025615 54 0 0.0 0.0 0.00 0.00 0.00 94 1021.6
20260902024633 54 0 0.0 0.0 0.00 0.00 0.00 94 1021.4
20260902023615 54 0 0.0 0.0 0.00 0.00 0.00 94 1021.6
20260902022616 54 0 0.0 0.0 0.00 0.00 0.00 94 1021.5
20260902021637 54 0 0.0 0.0 0.00 0.00 0.00 94 1021.6
20260902020615 54 0 0.0 0.0 0.00 0.00 0.00 93 1021.5
20260902015616 54 0 0.0 0.0 0.00 0.00 0.00 93 1021.4
20260902014634 54 0 0.0 0.0 0.00 0.00 0.00 93 1021.5
20260902013615 54 0 0.0 0.0 0.00 0.00 0.00 91 1021.4
20260902012616 54 0 0.0 0.0 0.00 0.00 0.00 90 1021.2
20260902011636 54 0 0.0 0.0 0.00 0.00 0.00 90 1021.2
20260902010616 54 0 0.0 0.0 0.00 0.00 0.00 90 1021.2
20260902005617 55 0 0.0 0.0 0.00 0.00 0.00 90 1021.2
20260902004634 55 0 0.0 0.0 0.00 0.00 0.00 90 1021.2
20260902003616 54 0 0.0 0.0 0.00 0.00 0.00 90 1021.4
20260902002616 55 0 0.0 0.0 0.00 0.00 0.00 89 1021.2
20260902001637 55 0 0.0 0.0 0.00 0.00 0.00 88 1021.4
20260902000617 55 0 0.0 0.0 0.00 0.00 0.00 88 1021.2
20260901235617 55 0 0.0 0.0 0.00 0.00 0.00 88 1021.4
20260901234635 55 0 0.0 0.0 0.00 0.00 0.00 87 1021.3
20260901233617 56 0 0.0 0.0 0.00 0.00 0.00 87 1021.3
20260901232617 56 0 0.0 0.0 0.00 0.00 0.00 86 1021.5
20260901231637 56 0 0.0 0.0 0.00 0.00 0.00 86 1021.3
20260901230617 56 0 0.0 0.0 0.00 0.00 0.00 86 1021.3
20260901225617 57 0 0.0 0.0 0.00 0.00 0.00 86 1021.3
20260901224636 57 0 0.0 0.0 0.00 0.00 0.00 86 1021.3
20260901223617 57 0 0.0 0.0 0.00 0.00 0.00 84 1021.5
20260901222617 57 0 0.0 0.0 0.00 0.00 0.00 84 1021.5
20260901221638 57 0 0.0 0.0 0.00 0.00 0.00 84 1021.4
20260901220618 58 0 0.0 0.0 0.00 0.00 0.00 82 1021.4
20260901215618 58 0 0.0 0.0 0.00 0.00 0.00 82 1021.4
20260901214636 58 0 0.0 0.0 0.00 0.00 0.00 82 1021.5
20260901213618 58 0 0.0 0.0 0.00 0.00 0.00 82 1021.4
20260901212618 58 0 0.0 0.0 0.00 0.00 0.00 83 1021.2
20260901211638 60 0 0.0 0.0 0.00 0.00 0.00 83 1021.2
20260901210618 59 0 0.0 0.0 0.00 0.00 0.00 82 1021.2
20260901205618 59 0 0.0 0.0 0.00 0.00 0.00 81 1021.1
20260901204632 59 0 0.0 0.0 0.00 0.00 0.00 82 1021.1
20260901203619 60 0 0.0 0.0 0.00 0.00 0.00 81 1020.9
20260901202618 61 0 0.0 0.0 0.00 0.00 0.00 81 1021.0
20260901201630 60 0 0.0 0.0 0.00 0.00 0.00 80 1021.0
20260901200619 61 0 0.0 0.0 0.00 0.00 0.00 78 1020.9
20260901195619 62 0 0.0 0.0 0.00 0.00 0.00 77 1021.0
20260901194629 62 0 0.0 0.0 0.00 0.00 0.00 76 1020.9
20260901193619 62 0 0.0 0.0 0.00 0.00 0.00 75 1020.8
20260901192619 62 0 0.0 0.0 0.00 0.00 0.00 75 1020.8
20260901191631 63 0 0.0 0.0 0.00 0.00 0.00 76 1020.7
20260901190619 64 0 0.0 0.0 0.00 0.00 0.00 71 1020.8
20260901185620 64 0 0.0 0.0 0.00 0.00 0.00 70 1020.6
20260901184629 64 0 0.0 0.0 0.00 0.00 0.00 69 1020.6
20260901183620 65 0 0.0 0.0 0.00 0.00 0.00 70 1020.3
20260901182619 65 0 0.0 0.0 0.00 0.00 0.00 67 1020.3
20260901181632 66 0 0.0 0.0 0.00 0.00 0.00 64 1020.2
20260901180621 67 0 0.0 0.0 0.00 0.00 0.00 62 1019.9
20260901175620 67 0 0.0 0.0 0.00 0.00 0.00 62 1019.9
20260901174630 68 0 0.0 0.0 0.00 0.00 0.00 60 1019.9
20260901173620 69 0 0.0 0.0 0.00 0.00 0.00 59 1019.9
20260901172620 69 0 0.0 0.0 0.00 0.00 0.00 58 1019.9
20260901171632 70 0 0.0 0.0 0.00 0.00 0.00 56 1019.8
20260901170620 72 0 0.0 0.0 0.00 0.00 0.00 53 1019.8
20260901165621 74 0 0.0 0.0 0.00 0.00 0.00 48 1019.8
20260901164632 78 0 0.0 0.0 0.00 0.00 0.00 43 1019.8
20260901163620 78 0 0.0 0.0 0.00 0.00 0.00 41 1020.1
20260901162621 82 0 0.0 0.0 0.00 0.00 0.00 34 1019.8
20260901161642 81 0 0.0 0.0 0.00 0.00 0.00 41 1019.7
20260901160622 78 0 0.0 0.0 0.00 0.00 0.00 43 1019.7
20260901155621 78 0 0.0 0.0 0.00 0.00 0.00 43 1019.8
20260901154639 76 0 0.0 0.0 0.00 0.00 0.00 46 1019.9
20260901153621 78 0 0.0 0.0 0.00 0.00 0.00 42 1019.9
20260901152621 79 0 0.0 0.0 0.00 0.00 0.00 40 1019.8
20260901151645 80 0 0.0 0.0 0.00 0.00 0.00 37 1019.9
20260901150621 76 0 0.0 0.0 0.00 0.00 0.00 43 1020.0
20260901145622 77 0 0.0 0.0 0.00 0.00 0.00 40 1020.1
20260901144641 80 0 0.0 0.0 0.00 0.00 0.00 36 1020.1
20260901143622 80 0 0.0 0.0 0.00 0.00 0.00 36 1020.1
20260901142622 78 0 0.0 0.0 0.00 0.00 0.00 40 1020.3
20260901141643 75 0 0.0 0.0 0.00 0.00 0.00 42 1020.4
20260901140622 78 0 0.0 0.0 0.00 0.00 0.00 40 1020.2
20260901135622 79 0 0.0 0.0 0.00 0.00 0.00 37 1020.2
20260901134640 82 0 0.0 0.0 0.00 0.00 0.00 32 1020.3
20260901133623 81 0 0.0 0.0 0.00 0.00 0.00 35 1020.3
20260901132622 79 0 0.0 0.0 0.00 0.00 0.00 39 1020.4
20260901131644 80 0 0.0 0.0 0.00 0.00 0.00 40 1020.5
20260901130623 80 0 0.0 0.0 0.00 0.00 0.00 40 1020.5
20260901125623 79 0 0.0 0.0 0.00 0.00 0.00 40 1020.6
20260901124641 80 0 0.0 0.0 0.00 0.00 0.00 40 1020.6
20260901123624 78 0 0.0 0.0 0.00 0.00 0.00 41 1020.7
20260901122623 78 0 0.0 0.0 0.00 0.00 0.00 42 1020.7
20260901121644 77 0 0.0 0.0 0.00 0.00 0.00 42 1020.7
20260901120623 76 0 0.0 0.0 0.00 0.00 0.00 44 1020.7
20260901115624 76 0 0.0 0.0 0.00 0.00 0.00 44 1020.9
20260901114641 75 0 0.0 0.0 0.00 0.00 0.00 44 1020.9
20260901113623 74 0 0.0 0.0 0.00 0.00 0.00 45 1021.1
20260901112624 74 0 0.0 0.0 0.00 0.00 0.00 45 1021.1
20260901111644 75 0 0.0 0.0 0.00 0.00 0.00 45 1021.1
20260901110623 75 0 0.0 0.0 0.00 0.00 0.00 45 1021.1
20260901105624 74 0 0.0 0.0 0.00 0.00 0.00 44 1020.9
20260901104642 75 0 0.0 0.0 0.00 0.00 0.00 45 1021.1
20260901103624 76 0 0.0 0.0 0.00 0.00 0.00 43 1021.0
20260901102624 74 0 0.0 0.0 0.00 0.00 0.00 49 1021.2
20260901101644 73 0 0.0 0.0 0.00 0.00 0.00 50 1021.2
20260901100625 73 0 0.0 0.0 0.00 0.00 0.00 50 1021.2
20260901095625 73 0 0.0 0.0 0.00 0.00 0.00 50 1021.1
20260901094643 72 0 0.0 0.0 0.00 0.00 0.00 54 1021.1
20260901093624 72 0 0.0 0.0 0.00 0.00 0.00 56 1021.1
20260901092625 71 0 0.0 0.0 0.00 0.00 0.00 57 1021.1
20260901091645 71 0 0.0 0.0 0.00 0.00 0.00 56 1021.1
20260901090625 71 0 0.0 0.0 0.00 0.00 0.00 57 1021.2
20260901085625 70 45 0.0 0.9 0.00 0.00 0.00 55 1021.1
20260901084639 71 0 0.0 0.0 0.00 0.00 0.00 55 1020.9
20260901083626 71 0 0.0 0.0 0.00 0.00 0.00 55 1020.9
20260901082626 70 0 0.0 0.0 0.00 0.00 0.00 56 1020.7
20260901081637 70 0 0.0 0.0 0.00 0.00 0.00 55 1020.7
20260901080626 71 0 0.0 0.0 0.00 0.00 0.00 57 1020.7
20260901075625 70 0 0.0 0.0 0.00 0.00 0.00 55 1020.3
20260901074636 71 0 0.0 0.0 0.00 0.00 0.00 55 1020.3
20260901073626 71 0 0.0 0.0 0.00 0.00 0.00 56 1020.2
20260901072627 71 0 0.0 0.0 0.00 0.00 0.00 57 1020.0
20260901071637 71 0 0.0 0.0 0.00 0.01 0.00 60 1020.1
20260901070627 69 0 0.0 0.0 0.00 0.02 0.00 60 1020.3